Owensboro, KY

1:16 AM CDT on August 22, 2017 (GMT -0500)
Owensboro-Daviess County

Weather History for KOWB - January, 2013

Change the Weather History Date:

Monday, January 7, 2013

  Actual Average Record
Temperature  
Mean Temperature 31 °F -  
Max Temperature 41 °F 41 °F 69 °F (2008)
Min Temperature 21 °F 24 °F -3 °F (1970)
Degree Days  
Heating Degree Days 34    
Moisture  
Dew Point 24 °F    
Average Humidity 79    
Maximum Humidity 96    
Minimum Humidity 56    
Precipitation  
Precipitation 0.00 in - - ()
Sea Level Pressure  
Sea Level Pressure 30.38 in    
Wind  
Wind Speed 2 mph (SSE)    
Max Wind Speed 9 mph    
Max Gust Speed -    
Visibility 8 miles    
Events      
Averages and records for this station are not official NWS values.
T = Trace of Precipitation, MM = Missing Value Source: NWS Daily Summary

Daily Weather History Graph

Daily Weather History Graph

Search for Another Location

Airport or City:

Trip Planner

Search our weather history database for the weather conditions in past years. The results will help you decide how hot, cold, wet, or windy it might be!

Date:

Astronomy

Jan. 07, 2013 Rise Set
Actual Time 7:04 AM CST 4:46 PM CST
Civil Twilight 6:35 AM CST 5:15 PM CST
Nautical Twilight 6:02 AM CST 5:47 PM CST
Astronomical Twilight 5:30 AM CST 6:19 PM CST
Moon 2:28 AM CST (1/7) 12:55 PM CST (1/7)
Length of Visible Light 10h 39m
Length of Day
9h 41m
Waning Crescent, 22% of the Moon is Illuminated
Jan 7
Waning Crescent
Jan 11
New
Jan 18
First Quarter
Jan 26
Full
Feb 3
Last Quarter

Hourly Weather History & Observations

Time (CST) Temp. Windchill Dew Point Humidity Pressure Visibility Wind Dir Wind Speed Gust Speed Precip Events Conditions
12:56 AM 23.0 °F - 21.0 °F 92% 30.43 in 6.0 mi Calm Calm - N/A   Clear
1:56 AM 24.1 °F - 21.0 °F 88% 30.45 in 6.0 mi Calm Calm - N/A   Clear
2:56 AM 22.1 °F - 21.0 °F 96% 30.46 in 5.0 mi Calm Calm - N/A   Clear
3:56 AM 22.1 °F - 20.1 °F 92% 30.46 in 5.0 mi Calm Calm - N/A   Clear
4:56 AM 22.1 °F - 20.1 °F 92% 30.46 in 4.0 mi Calm Calm - N/A   Clear
5:56 AM 22.1 °F - 20.1 °F 92% 30.46 in 6.0 mi Calm Calm - N/A   Clear
6:56 AM 21.0 °F - 19.0 °F 92% 30.47 in 4.0 mi Calm Calm - N/A   Clear
7:56 AM 24.1 °F - 22.1 °F 92% 30.48 in 4.0 mi Calm Calm - N/A   Clear
9:56 AM 32.9 °F 28.5 °F 26.1 °F 76% 30.50 in 6.0 mi SE 4.6 mph - N/A   Haze
10:56 AM 36.0 °F 31.1 °F 25.2 °F 65% 30.48 in 7.0 mi Variable 5.8 mph - N/A   Clear
11:56 AM 37.9 °F 32.7 °F 26.1 °F 62% 30.42 in 7.0 mi SE 6.9 mph - N/A   Clear
12:56 PM 39.9 °F 36.7 °F 26.1 °F 58% 30.40 in 10.0 mi SSW 4.6 mph - N/A   Clear
1:56 PM 41.9 °F 37.5 °F 27.1 °F 56% 30.37 in 10.0 mi SSE 6.9 mph - N/A   Clear
2:56 PM 41.9 °F 39.0 °F 28.0 °F 58% 30.35 in 10.0 mi Variable 4.6 mph - N/A   Clear
3:56 PM 41.0 °F 36.4 °F 28.0 °F 60% 30.33 in 10.0 mi South 6.9 mph - N/A   Clear
4:56 PM 36.0 °F 29.0 °F 28.0 °F 73% 30.30 in 10.0 mi SSE 9.2 mph - N/A   Clear
5:56 PM 36.0 °F 30.3 °F 27.1 °F 70% 30.27 in 10.0 mi SE 6.9 mph - N/A   Clear
6:56 PM 36.0 °F - 25.2 °F 65% 30.28 in 10.0 mi Calm Calm - N/A   Clear
7:56 PM 30.0 °F 24.1 °F 24.1 °F 79% 30.30 in 10.0 mi NW 5.8 mph - N/A   Clear
8:56 PM 27.1 °F - 24.1 °F 88% 30.31 in 9.0 mi Calm Calm - N/A   Clear
9:56 PM 26.1 °F 20.5 °F 23.0 °F 88% 30.28 in 8.0 mi SE 4.6 mph - N/A   Clear
10:56 PM 27.1 °F - 24.1 °F 88% 30.27 in 8.0 mi Calm Calm - N/A   Clear
11:56 PM 25.2 °F - 23.0 °F 91% 30.27 in 8.0 mi Calm Calm - N/A   Clear